GFSMW_925_thetae_132.txt.gz
Theta_e
344 348 350 350 350 350 350 349 348 345 345 345 347 348 348 348 347 347 345 346 347 347 348 348 348 347 346 348 348 349 347 347 347 347 346 344 342 344 345 344 343 341 341
347 347 350 351 351 350 350 349 350 349 348 346 347 347 348 347 349 349 349 348 348 349 351 351 351 351 350 346 347 348 347 345 348 347 344 344 341 340 342 341 340 343 341
348 346 345 348 350 351 350 350 350 350 349 349 348 348 348 348 348 349 349 349 349 350 349 350 350 351 350 349 348 346 347 345 346 347 345 343 345 340 341 341 341 341 341
349 348 347 346 346 346 346 345 347 350 351 350 349 349 349 340 340 340 348 350 349 349 349 349 349 349 349 349 348 348 346 346 345 346 346 344 341 345 345 339 341 342 341
348 349 348 348 351 352 352 351 350 352 353 353 352 351 349 348 345 345 349 350 350 349 348 349 349 350 349 348 348 348 347 347 347 346 345 344 343 341 341 346 341 341 341
344 344 345 345 348 354 354 355 354 353 353 354 354 353 352 351 349 351 351 352 351 350 350 349 349 349 350 350 349 348 348 347 347 346 345 344 344 343 342 343 344 342 343
339 338 337 340 342 343 346 346 345 337 334 334 335 338 340 343 346 348 349 351 351 348 346 347 350 349 349 348 349 349 348 347 347 346 345 344 345 343 343 343 344 342 341
336 336 336 336 335 335 335 334 333 332 330 329 328 328 327 328 330 335 339 343 344 346 348 349 346 347 349 349 349 348 348 347 347 347 346 345 345 344 343 343 342 344 342
335 335 334 334 335 333 332 331 330 328 327 327 326 326 327 329 330 330 330 331 333 337 340 345 347 348 348 349 349 349 348 347 346 346 346 345 345 345 345 344 343 343 348
333 333 333 333 333 331 330 329 327 326 325 326 327 327 328 329 330 331 332 333 333 333 335 338 341 343 347 348 349 349 348 347 346 346 346 346 345 346 344 344 344 344 345
332 333 332 332 331 330 329 327 325 324 324 325 327 328 327 328 329 329 330 331 331 331 333 335 338 341 343 344 346 347 348 347 347 346 346 346 345 344 344 344 344 344 344
332 332 331 331 330 329 327 326 324 323 323 324 326 327 326 327 327 328 329 329 329 330 330 329 333 339 342 343 345 346 346 347 347 347 344 340 337 332 334 345 345 345 344
332 331 329 329 328 328 327 326 324 322 319 319 321 323 323 325 327 326 327 328 329 328 329 331 331 335 339 344 345 345 344 344 345 345 338 335 330 328 334 337 346 346 346
333 330 328 327 328 327 327 326 325 321 318 321 322 323 324 327 326 324 326 328 329 328 328 328 330 332 335 341 343 344 344 343 343 344 342 339 334 333 334 335 343 346 346
332 330 328 326 327 327 327 327 324 320 319 321 319 322 326 326 326 326 327 327 327 328 329 329 328 330 333 336 341 341 342 342 342 342 342 335 330 330 334 339 343 346 346
333 330 328 327 326 327 328 327 323 321 321 321 315 317 320 324 326 327 328 328 328 328 329 329 330 328 330 335 338 340 340 341 341 341 338 335 334 334 334 336 338 344 346
332 330 328 327 328 327 328 325 323 321 321 316 316 318 322 325 326 327 328 328 328 326 327 329 330 329 330 334 335 339 340 340 340 338 334 334 335 334 335 338 341 341 341
330 329 327 328 329 330 328 326 322 321 319 317 317 322 325 326 326 328 329 327 325 326 329 330 331 332 334 336 339 340 339 339 338 337 335 332 332 333 334 333 333 333 334
328 329 330 330 330 329 327 325 322 319 319 317 321 323 325 326 327 328 327 326 326 324 331 330 332 335 336 336 339 340 338 337 337 338 336 334 334 334 333 335 335 337 337
329 329 330 330 329 328 326 323 320 318 318 322 323 324 325 326 327 328 328 328 325 322 327 330 330 330 333 336 339 338 338 338 337 335 336 336 335 333 334 337 336 336 337
329 330 330 329 328 327 324 322 321 321 322 324 323 323 324 326 326 325 326 327 326 323 325 322 323 326 327 330 335 336 335 335 335 335 336 336 336 336 335 335 336 337 337
329 330 330 329 328 326 323 322 323 323 324 324 323 323 322 322 325 325 327 326 322 320 321 322 321 322 323 326 331 336 335 337 338 337 337 337 337 336 337 337 338 337 337
330 331 330 329 327 327 324 324 324 324 325 324 322 321 322 321 325 325 323 322 323 322 322 320 321 322 323 325 327 333 338 337 336 336 336 337 338 339 340 340 340 340 339
330 331 329 326 326 326 325 324 325 326 325 324 322 322 322 322 322 325 324 323 322 322 322 320 321 320 322 321 324 327 331 332 333 334 334 334 335 334 333 333 335 336 337
330 330 328 327 327 326 325 322 325 326 323 324 324 322 320 320 323 325 325 324 323 324 324 323 322 323 322 321 323 327 331 332 332 332 332 331 330 330 329 328 329 331 332
329 327 327 326 326 326 324 323 326 326 323 324 323 320 320 319 320 326 326 325 324 322 322 321 320 320 322 324 324 324 329 330 330 328 328 327 327 327 328 328 327 325 325

GFSMW_925_thetae_138.txt.gz
Theta_e
352 353 354 355 355 356 357 358 358 358 358 356 355 354 353 352 351 351 350 350 350 350 352 352 350 351 351 352 352 354 352 350 349 350 350 347 348 348 347 343 343 342 342
354 353 355 355 356 357 358 358 359 359 359 356 355 354 355 354 354 353 352 353 353 353 352 353 353 352 352 353 352 352 353 351 351 350 350 351 346 345 346 346 344 343 342
353 354 355 356 356 356 358 359 360 360 359 357 355 356 355 355 355 355 355 353 354 354 354 352 350 349 348 351 351 351 353 352 349 350 351 352 349 343 343 344 345 342 342
351 354 354 355 356 356 356 358 360 360 359 359 356 357 357 357 355 355 355 354 353 353 353 354 349 349 349 350 349 350 351 351 350 349 350 350 348 350 347 342 346 347 348
351 354 354 353 354 354 355 356 358 359 359 358 358 358 358 355 355 355 355 354 355 355 356 355 355 355 355 350 351 351 351 351 351 349 348 349 351 351 352 350 344 347 347
352 353 353 354 354 353 354 355 359 361 361 361 360 359 358 356 354 351 349 346 345 347 349 352 353 354 353 355 353 352 352 352 351 350 349 349 350 350 350 351 348 345 344
352 354 356 354 355 357 358 359 359 357 355 354 351 348 345 343 341 340 337 337 334 334 335 339 346 347 350 351 351 352 353 353 352 351 351 350 349 348 347 347 347 347 345
352 353 352 352 354 356 353 349 350 348 346 344 343 341 340 337 336 335 337 336 335 335 337 339 340 340 341 344 347 351 351 350 351 353 352 350 350 350 349 348 348 350 347
351 354 351 352 353 351 348 346 347 345 342 340 339 339 338 336 335 336 336 334 335 335 335 337 338 338 339 340 341 343 348 350 350 351 352 353 352 349 350 350 349 349 352
351 354 351 350 349 346 344 343 343 342 339 337 336 335 334 334 334 333 333 333 334 336 336 336 336 337 337 337 338 340 342 344 348 350 350 351 353 352 351 350 350 350 350
351 349 347 347 345 343 342 340 339 338 337 335 333 332 332 332 331 329 329 332 333 334 335 335 335 335 335 336 336 337 338 340 342 346 349 349 350 353 352 350 349 351 351
347 344 345 345 343 342 340 339 337 336 335 333 331 331 331 330 328 330 332 333 333 333 333 334 333 334 336 335 335 335 335 337 339 341 345 349 349 350 352 351 351 350 350
347 344 344 344 342 341 340 339 337 336 333 332 330 331 330 327 330 332 333 333 334 334 334 334 334 333 330 331 333 333 335 336 338 340 342 345 348 349 350 351 351 350 350
347 345 346 344 343 341 340 338 337 334 333 331 330 330 327 325 325 326 331 333 334 334 333 332 330 328 328 328 331 333 334 334 336 339 341 343 346 348 349 351 351 350 349
349 348 347 346 343 342 340 338 336 335 333 331 330 329 325 324 326 330 332 334 334 334 332 330 327 326 326 324 325 327 328 332 334 336 340 341 343 345 347 349 349 348 348
348 348 347 345 343 341 340 337 336 335 332 330 329 327 325 324 330 332 333 334 334 332 332 328 325 326 323 321 324 330 329 329 332 335 337 340 342 343 344 347 345 346 346
346 347 346 344 342 340 337 336 336 333 331 330 328 326 325 325 330 333 334 333 333 333 331 325 326 326 321 320 321 323 327 329 331 333 337 340 341 343 343 344 346 345 341
340 345 343 341 341 339 337 337 335 333 330 329 327 324 325 327 331 333 333 332 332 332 329 324 324 324 321 319 319 322 325 330 331 333 337 339 342 342 343 344 342 341 341
342 342 341 341 339 337 337 337 335 333 330 329 327 325 327 331 332 332 332 331 332 330 326 325 324 321 320 320 320 318 320 328 332 336 338 339 341 341 341 342 343 343 343
340 342 340 338 337 337 338 337 334 332 331 330 326 327 330 331 331 332 330 330 331 327 324 324 322 320 323 321 322 315 322 328 334 338 339 338 338 341 341 342 343 344 344
342 340 337 333 336 338 338 336 334 332 331 329 328 328 330 330 329 332 330 330 328 326 326 324 322 322 324 323 319 321 327 330 337 338 338 338 338 340 341 340 340 341 341
339 336 334 335 337 339 338 336 334 332 331 329 329 328 330 330 327 330 330 325 326 326 325 324 325 324 324 325 321 325 328 333 335 337 337 336 336 337 336 336 335 336 337
336 334 334 337 339 339 338 337 335 333 331 330 332 329 329 330 329 330 330 327 324 324 324 321 325 323 323 324 322 323 326 329 331 333 331 331 330 328 328 331 332 332 333
337 335 336 337 340 339 338 336 335 334 331 331 332 328 330 329 329 327 327 328 325 325 324 322 324 322 323 323 324 322 323 325 329 330 326 323 322 324 325 325 325 327 328
337 336 337 338 339 340 338 336 334 333 330 331 330 325 324 325 325 325 325 327 327 321 322 321 318 321 321 324 324 325 325 327 328 328 329 327 324 321 320 322 324 323 323
336 337 338 337 339 340 339 335 333 331 331 331 327 324 324 324 323 323 324 325 324 321 319 317 316 319 321 324 324 326 327 326 326 327 328 328 326 325 323 324 324 323 324

GFSMW_925_thetae_141.txt.gz
Theta_e
352 351 351 352 354 356 358 360 361 361 360 358 357 356 356 354 354 354 354 354 353 352 351 350 351 352 351 350 351 351 351 352 350 350 350 350 349 348 347 346 345 343 343
353 353 353 354 354 357 359 361 362 362 360 360 358 357 356 355 356 356 355 355 355 354 354 353 353 350 348 347 350 351 352 352 351 350 350 352 348 349 347 348 347 346 345
352 354 355 355 355 357 360 361 363 363 362 361 360 359 358 358 356 356 355 355 356 356 353 354 352 353 351 349 349 348 350 352 351 352 350 354 352 347 345 346 346 346 346
350 352 353 355 354 355 357 361 363 363 363 362 359 359 359 358 354 353 353 355 353 351 353 353 353 353 354 352 351 353 351 348 349 349 352 350 350 352 350 344 345 346 347
346 348 349 351 350 349 352 357 362 364 363 363 362 360 359 354 351 349 350 351 350 353 355 354 353 354 354 353 353 353 353 353 351 349 348 350 351 352 352 353 347 344 347
345 345 344 346 347 348 349 353 361 363 364 363 363 361 360 358 354 349 345 338 334 333 332 336 340 345 351 350 351 351 351 351 353 354 353 348 349 350 353 354 353 350 346
345 346 346 346 348 347 348 351 359 365 363 362 360 359 355 350 346 343 339 340 335 332 333 338 340 341 341 342 343 345 349 351 351 352 353 353 350 348 350 351 352 350 349
347 347 348 347 347 347 348 352 361 362 357 352 351 349 347 342 340 339 340 337 335 336 336 338 339 340 341 341 341 341 342 345 348 351 351 352 351 353 349 350 352 354 350
349 350 349 347 346 348 353 352 355 352 350 349 347 345 343 342 339 339 338 335 335 334 334 337 338 338 339 339 340 339 340 342 344 346 348 350 352 351 352 351 347 353 356
350 350 350 346 348 350 351 348 350 350 348 345 343 340 340 338 337 337 336 334 334 335 337 337 338 338 338 338 338 338 338 340 340 342 344 346 348 350 350 351 350 347 351
352 351 350 347 349 350 349 346 347 348 345 342 340 338 337 336 335 334 333 333 334 335 336 336 336 336 336 336 337 337 338 338 338 339 341 343 344 347 349 349 350 353 353
351 350 351 349 349 347 346 344 344 344 342 340 338 336 336 336 333 333 334 334 335 335 336 336 336 336 336 335 334 335 334 335 336 337 339 340 342 345 346 348 349 351 353
347 350 351 348 348 346 344 344 344 342 340 338 335 335 336 334 332 331 330 331 335 335 335 335 335 334 333 332 331 331 330 330 332 335 337 338 339 342 345 346 348 350 352
349 349 350 353 348 345 344 344 343 340 338 336 334 335 334 331 329 328 331 332 334 336 335 334 334 333 330 329 329 329 326 325 324 326 332 336 337 339 342 345 346 348 350
349 350 349 350 347 346 345 344 342 339 337 335 334 334 333 330 328 330 334 334 335 335 335 335 333 331 327 327 326 326 325 321 323 324 329 332 334 337 340 343 345 346 349
343 348 349 349 349 347 346 344 341 339 336 334 333 333 332 330 328 330 334 335 335 335 334 333 331 327 327 325 324 324 322 320 321 323 328 331 333 335 338 341 344 344 348
336 343 349 350 350 348 346 343 340 338 336 334 333 332 329 328 329 332 333 335 334 333 332 330 328 327 326 324 324 323 321 321 321 322 327 332 334 335 338 341 341 343 344
335 336 345 348 348 347 344 340 338 336 335 334 333 331 328 329 332 334 335 334 333 332 331 328 327 326 325 324 324 322 321 320 320 319 329 332 335 337 340 341 342 343 344
339 339 341 347 347 345 342 338 337 335 334 333 333 330 328 332 334 333 334 334 331 330 328 326 327 326 326 324 323 322 317 316 317 321 331 336 336 338 339 341 342 343 345
340 342 343 344 345 342 339 338 337 336 335 334 332 329 330 334 333 333 333 333 331 328 328 327 326 327 325 320 321 323 317 316 321 329 332 336 338 338 339 339 342 343 344
342 343 344 344 342 339 338 339 337 336 335 334 331 330 331 333 332 331 333 332 330 329 327 326 325 326 324 320 319 323 315 323 326 335 338 338 338 338 337 339 342 342 342
343 343 343 341 338 339 339 339 337 336 335 334 331 331 330 331 330 331 332 331 329 328 327 325 325 323 322 321 319 324 325 324 326 328 330 334 336 336 337 338 339 340 340
343 342 341 338 336 339 340 340 339 337 336 334 332 334 331 330 331 331 332 331 328 327 324 323 324 323 319 323 323 324 325 326 323 322 322 325 326 326 326 328 330 332 333
341 340 339 337 339 340 342 341 341 339 337 335 334 334 331 331 330 329 326 325 326 327 324 325 324 322 322 321 321 324 325 326 327 323 323 323 324 324 324 324 324 324 326
339 340 339 338 338 341 342 341 340 338 337 335 333 332 328 326 327 326 325 324 327 323 323 321 322 321 321 323 321 324 324 324 326 327 324 324 326 325 324 324 323 323 323
330 336 339 339 339 340 342 340 335 331 333 332 331 330 326 325 324 325 327 325 324 320 319 317 317 319 319 322 321 322 322 323 325 326 327 327 326 325 323 324 325 326 325

GFSMW_925_thetae_144.txt.gz
Theta_e
348 348 349 350 354 356 358 359 360 359 359 359 357 357 356 354 354 354 354 353 355 354 353 351 350 350 351 347 338 334 348 348 347 347 347 349 351 352 348 346 348 344 344
351 352 352 353 355 358 360 362 362 362 360 359 358 357 355 356 355 356 356 356 356 355 354 353 351 351 350 347 346 339 337 344 346 346 346 349 349 348 350 350 348 348 346
353 356 354 354 355 358 361 363 363 364 361 359 359 359 359 358 355 357 358 356 354 354 355 354 353 352 353 351 350 349 346 347 347 345 347 350 353 350 347 350 350 349 348
353 357 357 357 355 357 361 363 364 364 364 361 362 360 359 358 357 354 354 354 351 352 351 353 352 352 349 350 351 350 351 351 350 348 347 345 347 350 349 347 351 350 351
352 354 355 357 354 354 359 363 364 365 364 362 362 361 359 356 357 350 350 349 343 338 341 347 349 349 348 349 349 352 353 352 352 351 350 346 342 340 347 349 348 348 349
351 353 352 355 354 352 353 361 365 366 363 365 364 363 363 362 356 352 343 343 340 336 333 338 337 339 342 344 344 343 346 348 348 349 351 351 348 345 346 347 348 350 350
348 351 353 354 353 351 352 357 365 367 367 365 364 363 361 358 349 346 342 341 339 335 334 339 337 338 341 342 342 342 343 343 345 348 349 351 350 350 349 348 347 348 348
347 349 350 351 350 350 351 354 365 367 366 364 363 358 353 347 344 342 340 337 337 338 336 336 338 338 339 340 340 341 341 340 342 343 345 347 347 350 350 349 349 348 343
346 349 350 349 350 349 351 352 364 366 365 358 353 350 348 345 343 340 339 338 336 335 334 336 338 338 339 340 339 340 339 339 340 342 342 343 345 346 346 348 349 349 350
342 349 350 349 349 349 350 353 363 359 355 353 350 347 344 341 340 339 338 335 334 335 337 337 338 337 336 336 338 338 338 338 338 338 339 339 338 339 342 344 346 348 348
345 351 352 352 349 347 351 354 357 355 352 349 346 342 340 339 338 337 335 335 336 337 338 337 338 338 339 337 337 336 336 334 332 334 335 334 332 335 338 341 343 344 347
347 350 351 350 347 348 352 351 352 352 349 346 342 340 339 339 337 335 335 333 332 332 335 336 337 336 336 335 334 334 331 330 331 331 331 330 330 331 333 339 341 342 342
342 350 353 353 350 351 352 350 350 349 347 343 340 339 338 338 336 334 332 330 332 334 337 337 336 335 334 333 332 328 329 328 327 328 328 327 327 326 328 331 338 340 342
347 349 358 361 354 352 351 348 347 346 344 341 338 337 337 336 333 330 330 335 336 336 335 336 335 335 333 330 328 327 325 325 325 326 326 325 324 324 326 332 336 338 340
345 351 357 364 358 354 351 349 347 345 342 339 337 336 336 334 332 330 330 335 335 336 336 335 334 333 332 328 326 325 324 324 324 323 323 323 322 323 325 330 335 337 338
339 346 353 361 357 354 351 349 348 344 340 339 337 336 334 334 331 331 331 334 336 336 334 333 332 330 330 328 326 322 322 322 323 322 322 321 322 323 324 326 331 333 337
336 343 351 358 356 353 351 349 348 343 341 338 336 335 334 331 330 331 334 336 336 335 333 333 327 330 327 327 324 321 320 321 322 322 320 321 323 324 325 331 333 334 335
337 344 345 350 356 352 350 349 347 344 340 338 336 334 332 330 331 335 335 336 336 334 332 328 329 328 328 326 320 321 321 323 319 318 318 320 321 322 329 334 336 337 338
344 345 342 344 355 353 350 348 345 342 339 338 336 334 331 330 334 334 335 335 335 333 329 330 328 328 326 320 322 322 322 323 321 325 325 326 323 328 335 335 337 339 341
341 341 339 342 354 352 348 345 342 340 339 336 335 333 331 332 334 334 334 334 334 333 331 328 328 328 322 321 323 323 321 323 321 323 328 334 335 334 336 337 337 340 342
341 341 343 345 351 350 345 343 342 341 338 336 335 332 331 333 334 333 333 333 334 331 329 329 326 325 319 322 320 323 322 323 323 323 323 325 337 337 337 337 338 338 340
340 342 345 348 350 347 344 343 343 340 338 336 335 332 332 332 332 333 333 333 334 333 329 327 325 325 322 322 319 321 323 324 324 324 323 324 325 328 331 333 335 337 338
345 342 344 348 348 345 343 344 343 340 338 337 335 333 334 332 331 332 333 334 333 330 326 327 326 325 321 322 320 320 322 324 325 324 324 323 323 324 324 326 330 331 332
342 343 346 347 346 345 343 343 343 341 338 338 335 334 334 333 332 333 333 332 330 327 325 326 325 325 323 321 320 317 320 323 325 326 325 324 323 322 322 323 323 323 323
332 333 342 345 344 342 345 344 343 340 333 332 331 329 332 334 330 331 331 329 326 324 325 324 324 322 320 318 316 315 317 320 323 323 325 326 324 325 326 325 322 320 323
326 328 330 333 340 342 343 335 336 334 326 326 325 323 330 333 330 329 324 326 323 320 321 316 317 314 312 312 313 314 313 314 318 321 320 323 326 326 324 324 326 326 322

GFSMW_925_thetae_147.txt.gz
Theta_e
344 346 346 348 352 352 353 355 355 357 356 357 356 354 354 353 352 352 353 345 343 350 353 353 353 352 350 350 349 346 346 344 338 343 345 343 341 342 343 349 349 346 343
345 345 346 351 356 354 355 356 357 356 357 357 356 357 356 355 356 355 352 352 353 354 355 354 353 351 351 351 350 350 347 343 345 344 345 344 345 344 346 347 347 349 349
347 347 349 354 353 357 357 358 359 360 359 358 358 358 357 355 358 355 355 356 356 348 350 350 352 350 351 351 349 346 348 348 348 349 346 345 348 346 343 344 344 343 349
348 349 351 353 356 358 358 359 360 362 361 359 358 359 358 357 355 355 354 355 354 352 351 353 353 352 349 350 348 349 349 350 351 350 348 346 345 345 346 342 340 338 338
350 351 353 353 356 359 359 360 361 363 363 360 358 361 361 359 357 353 351 350 342 338 335 337 339 341 339 341 345 346 347 346 347 347 348 348 347 345 344 344 340 342 344
351 351 353 354 354 358 360 362 363 363 364 363 359 362 362 360 360 353 343 341 341 339 334 337 337 337 339 342 341 341 341 341 342 342 343 347 346 344 341 341 341 342 343
351 353 354 355 355 355 361 363 364 364 363 366 362 360 362 361 358 344 343 342 340 331 335 336 337 338 337 337 338 339 340 339 339 339 340 340 341 342 343 343 343 344 345
350 352 352 355 354 353 357 363 365 365 365 364 365 363 360 359 347 346 342 339 330 337 336 334 334 333 336 336 339 338 337 338 338 338 339 339 340 341 341 341 342 343 344
349 345 346 353 353 352 354 364 366 365 365 364 363 363 359 350 344 341 336 329 336 333 332 335 335 335 335 335 335 337 338 337 336 334 334 335 336 338 337 336 337 339 342
345 342 342 351 351 351 354 363 364 365 366 365 361 355 349 345 341 337 334 334 333 335 337 336 336 336 337 338 338 335 335 333 333 332 329 330 332 333 333 333 330 336 339
343 342 341 348 348 350 355 364 366 367 360 356 353 348 345 341 339 337 335 334 336 333 331 333 335 337 337 336 335 334 333 333 330 329 329 329 330 330 330 329 330 333 336
341 342 344 347 349 350 361 363 362 360 354 351 348 346 340 338 337 335 332 331 328 332 333 336 338 336 335 334 333 331 332 329 325 324 324 324 324 324 326 327 327 327 328
336 345 346 346 347 347 353 358 357 354 350 348 346 341 339 338 337 334 331 329 334 336 336 336 335 334 333 332 330 331 326 325 323 321 321 322 323 324 324 326 325 325 325
339 341 348 346 346 347 353 354 353 351 348 346 342 340 337 337 335 332 330 330 335 336 337 335 334 332 332 329 330 327 323 321 321 321 321 322 323 323 322 324 323 323 325
342 343 357 352 352 353 352 351 350 348 346 342 339 337 336 337 334 331 330 329 334 334 336 332 330 330 328 330 327 321 321 321 321 321 322 323 323 323 323 324 323 323 325
337 340 358 356 356 352 350 349 348 346 343 340 338 336 336 335 333 331 330 331 334 336 334 329 329 328 330 327 323 321 322 320 321 322 323 322 322 322 322 322 323 324 325
337 339 343 353 355 352 350 348 347 344 340 338 336 336 335 334 332 330 331 334 337 335 331 327 329 328 327 324 322 322 321 320 322 324 323 323 324 322 321 322 323 324 324
335 336 339 352 354 351 349 348 344 341 339 338 337 335 334 333 330 330 335 335 336 335 331 328 331 327 327 320 319 321 322 321 323 323 324 323 324 324 322 322 323 324 329
338 339 338 339 354 353 349 348 344 342 339 337 336 335 334 332 330 333 335 334 334 333 330 331 329 328 322 318 318 321 320 322 323 324 324 323 321 324 326 323 323 327 334
342 341 341 344 354 353 351 348 345 342 338 337 336 335 334 331 330 334 334 333 332 333 332 328 328 329 322 318 317 321 319 321 323 323 324 323 322 327 335 329 332 334 335
342 341 341 342 354 352 349 347 344 340 338 337 336 335 334 331 331 334 333 333 333 333 331 328 327 325 319 318 319 318 319 321 323 323 324 323 322 322 328 332 335 335 336
343 344 344 345 355 352 348 344 341 340 337 336 336 334 331 331 331 334 334 334 331 332 330 330 326 324 321 320 321 316 319 324 323 324 323 324 323 322 324 325 331 333 335
337 338 342 347 352 349 347 343 341 340 338 338 335 334 333 334 332 331 331 331 330 330 330 327 324 325 323 322 319 316 318 322 324 323 325 323 325 322 320 323 323 324 325
332 332 333 339 345 348 346 343 342 341 338 335 333 331 327 326 326 325 328 331 331 331 326 324 324 321 316 313 313 313 315 320 322 321 321 324 325 324 322 319 319 322 322
326 324 326 328 328 340 342 342 340 337 336 334 328 324 325 324 325 325 330 331 329 326 323 322 317 314 313 311 312 312 313 315 319 321 319 318 321 322 324 325 322 318 318
325 323 327 327 326 341 340 340 338 335 330 328 325 325 327 325 324 328 329 327 322 321 320 316 316 314 312 310 309 312 312 312 314 316 317 317 317 318 320 321 322 321 321